User: anonymous   Login
Location: Newark
(44.3248°N, 23.7839°E)
Time: 19:56:21
(UTC+00:00)
Language:

STARS - Orbit

View from above orbital plane
View from above orbital plane
View from above satellite
View from above satellite

Ground track
Ground track

The orbit data is extracted from the following two-line orbital elements,

1 33498U 09002G   24113.32002031  .00010723  00000-0  12668-2 0  9998
2 33498  98.1225  26.4650 0008704 221.8728 138.1821 14.84830240821805
Epoch (UTC): 22 April 2024 07:40:49
Eccentricity: 0.0008704
inclination: 98.1225°
perigee height: 608 km
apogee height: 620 km
right ascension of ascending node: 26.4650°
argument of perigee: 221.8728°
revolutions per day: 14.84830240
mean anomaly at epoch: 138.1821°
orbit number at epoch: 82180

The dashed part of the orbit path shows where the satellite is in the earth's shadow,  

DLR